Flag for Paraguay Weather past 2 weeks in Ciudad del Este, Paraguay

Now
75 °F

Clear.


Feels Like: 75 °F
Forecast: 65 / 93 °F
Wind: 6 mph from East

Location: Foz Do Iguacu Aeroporto

Current Time: Oct 24, 2014 at 9:59:07 PM

Latest Report: Oct 24, 2014 at 9:00 PM


Visibility: 10 mi

Pressure: 29.86 "Hg

Humidity: 83%

Dew point: 70 °F

Location of Ciudad del EsteLocation

Historic Weather in Ciudad del Este — Graph

°F

Ciudad del Este temperature yesterday

Maximum temperature yesterday: 91 °F (at 3:00 PM)
Minimum temperature yesterday: 66 °F (at 4:00 AM)
Average temperature yesterday: 77 °F

Past Weeks' High & Low Weather Summary

 TemperatureHumidityPressure
High102 °F (Oct 15, 2:00 PM)100% (Oct 11, 3:00 AM)30.09 "Hg (Oct 11, 3:00 AM)
Low59 °F (Oct 21, 6:00 AM)24% (Oct 15, 4:00 PM)29.68 "Hg (Oct 18, 4:00 PM)
Average81 °F65%29.89 "Hg
* Reported Oct 9 9:00 PM — Oct 24 9:00 PM, Ciudad del Este, Weather by CustomWeather, © 2014

Note: Actual official high and low records may vary slightly from our data, if they occured in-between our weather recording intervals... More about our weather records

Advertising

Ciudad del Este weather history for previous 24 hours

 ConditionsComfort  
Time TempWeatherWind HumidityBarometerVisibility
9:00 PM
Oct 24
75 °FClear.6 mph83%29.86 "Hg10 mi
8:00 PM77 °FClear.12 mph74%29.86 "Hg10 mi
7:00 PM81 °FClear.8 mph70%29.83 "Hg10 mi
6:00 PM88 °FSunny.5 mph43%29.83 "Hg10 mi
5:00 PM90 °FSunny.5 mph43%29.80 "Hg10 mi
4:00 PM86 °FScattered clouds.7 mph49%29.83 "HgN/A
3:00 PM91 °FScattered clouds.6 mph41%29.83 "HgN/A
2:00 PM91 °FSunny.5 mph46%29.86 "Hg10 mi
1:00 PM88 °FScattered clouds.5 mph59%29.92 "Hg10 mi
12:00 PM84 °FScattered clouds.3 mph58%29.95 "HgN/A
11:00 AM82 °FScattered clouds.3 mph58%29.95 "HgN/A
10:00 AM81 °FPartly sunny.8 mph58%29.95 "HgN/A
9:00 AM79 °FSunny.9 mph58%29.95 "Hg10 mi
8:00 AM75 °FSunny.9 mph61%29.92 "Hg10 mi
7:00 AM72 °FSunny.8 mph69%29.89 "Hg10 mi
6:00 AM70 °FSunny.8 mph73%29.89 "Hg10 mi
5:00 AM68 °FClear.7 mph83%29.86 "Hg10 mi
4:00 AM70 °FClear.8 mph78%29.89 "Hg10 mi
3:00 AM70 °FClear.7 mph78%29.89 "Hg10 mi
2:00 AM68 °FClear.2 mph83%29.89 "Hg10 mi
1:00 AM73 °FClear.6 mph74%29.89 "Hg10 mi
12:00 AM72 °FClear.5 mph78%29.92 "Hg10 mi
11:00 PM
Oct 23
73 °FClear.3 mph74%29.92 "Hg10 mi
10:00 PM73 °FClear.3 mph74%29.92 "Hg10 mi
9:00 PM77 °FClear.5 mph65%29.89 "Hg10 mi
Weather by CustomWeather, © 2014

See weather overviewHow to use our weather pages